Location: Ward Pound Ridge Reservation
(41.2500°N, 73.6000°W)
Time: 20:11:08
(UTC-04:00)

Tiangong 2 - Pass Details

Date: 14 October 2017
Orbit: 388 x 392 km, 42.8° (Epoch: 16 October)

Event Time Altitude Azimuth Distance (km) Brightness Sun altitude
Exits shadow 04:58:31 31° 71° (ENE) 713 3.0 -24.5°
Drops below altitude 10° 05:00:20 10° 77° (ENE) 1,422 5.0 -24.2°
Sets 05:02:26 0° 79° (E) 2,278 6.4 -23.8°
